Location: *
(51.8167°N, 12.5000°E)
Time: 22:17:42
(UTC+00:00)

SPOT 5 - Pass Details

Date: 16 September 2019
Orbit: 624 x 814 km, 98.3° (Epoch: 21 October)

Event Time Altitude Azimuth Distance (km) Brightness Sun altitude
Exits shadow 19:32:31 26° 70° (ENE) 1,390 4.0 -19.7°
Maximum altitude 19:33:02 27° 59° (ENE) 1,378 4.1 -19.7°
Drops below altitude 10° 19:37:07 10° 4° (N) 2,260 5.8 -20.3°
Sets 19:39:45 0° 352° (N) 3,222 6.8 -20.6°
